Regional Weather Roundup
Issued by NWS

Home | Current Version | Previous Version | Text Only | Print | Product List | Glossary Off
Versions: 1 2 3 4 5 6 7 8 9 10 11 12 13 14 15 16 17 18 19 20 21 22 23 24 25 26 27 28 29 30 31 32 33 34 35 36 37 38 39 40 41 42 43 44 45 46 47 48 49 50

000
ASUS45 KPSR 170810
RWRAZ

ARIZONA HOURLY REGIONAL WEATHER ROUNDUP
NATIONAL WEATHER SERVICE PHOENIX AZ
100 AM MST TUE OCT 17 2017

NOTE: FAIR INDICATES FEW OR NO CLOUDS BELOW 12,000 FEET WITH NO
SIGNIFICANT WEATHER AND/OR OBSTRUCTIONS TO VISIBILITY.

AZZ001>003-036-170900-
NORTHWEST ARIZONA

CITY           SKY/WX    TMP DP  RH WIND       PRES   REMARKS
BULLHEAD CITY  CLEAR     72  27  18 N7        30.04F
KINGMAN        CLEAR     58  14  17 CALM      30.21S
$$

AZZ004>008-015-016-018-170900-
NORTH CENTRAL ARIZONA

CITY           SKY/WX    TMP DP  RH WIND       PRES   REMARKS
GRAND CANYON   PTCLDY    32   6  33 NE3       30.41S
WILLIAMS       CLEAR     45  21  39 S13       30.40S
PRESCOTT       CLEAR     51  31  46 S5        30.30S
FLAGSTAFF      CLEAR     36  17  46 CALM      30.42F
PAGE           PTCLDY    51  14  22 CALM      30.30S
$$

AZZ009>014-017-170900-
NORTHEAST ARIZONA

CITY           SKY/WX    TMP DP  RH WIND       PRES   REMARKS
WINSLOW        CLEAR     46  12  25 CALM      30.33R
SAINT JOHNS    CLEAR     49  21  33 S5        30.36S
WINDOW ROCK    CLEAR     31  10  41 S3        30.43S
SHOW LOW       CLEAR     50  34  53 S8        30.40S
$$

AZZ540-542>544-546-548-170900-
GREATER PHOENIX AREA

CITY           SKY/WX    TMP DP  RH WIND       PRES   REMARKS
PHOENIX        CLEAR     79  41  25 SE3       30.00S
BUCKEYE        CLEAR     70  25  18 N8        30.00F
LUKE AFB       CLEAR     69  37  30 N7        29.99F
DEER VALLEY    CLEAR     79  40  24 NE5       30.02F
SCOTTSDALE     CLEAR     72  42  34 CALM      30.04S
MESA-GATEWAY   CLEAR     70  37  30 SE6       30.03R
$$

AZZ539-553-170900-
SOUTHWEST MARICOPA COUNTY AND PINAL COUNTY

CITY           SKY/WX    TMP DP  RH WIND       PRES   REMARKS
CASA GRANDE    NOT AVBL
$$

AZZ503-504-507>509-170900-
SOUTHEAST ARIZONA

CITY           SKY/WX    TMP DP  RH WIND       PRES   REMARKS
TUCSON         CLEAR     77  45  32 E8        30.12S
DAVIS-MONTHAN  CLEAR     77  43  29 SE3       30.10S
NOGALES        CLEAR     65  47  52 E6        30.18F
SIERRA VISTA   CLEAR     64  45  50 E6        30.26S
DOUGLAS        CLEAR     61  44  53 CALM      30.23S
SAFFORD        CLEAR     66  43  43 E7        30.19F
$$

AZZ532-170900-
SOUTHWEST ARIZONA

CITY           SKY/WX    TMP DP  RH WIND       PRES   REMARKS
YUMA           CLEAR     78  19  11 N6        29.96S
$$

CAZ041-043-047-048-061-525>527-560>570-170900-
SOUTHERN CALIFORNIA

CITY           SKY/WX    TMP DP  RH WIND       PRES   REMARKS
DOWNTOWN L.A.  CLEAR     69  50  50 CALM      29.99F
L.A. AIRPORT   PTCLDY    70  50  49 SE3       29.99F
SAN DIEGO      PTCLDY    71  42  35 NW3       30.00F
BURBANK        CLEAR     69  28  21 CALM      30.02F
ONTARIO        PTCLDY    70  36  28 VRB5      30.03F
RIVERSIDE      CLEAR     68  37  32 E5        30.04S
PALM SPRINGS   CLEAR     77  19  11 NW7       30.02F
EL CENTRO NAS  CLEAR     67  18  15 CALM      29.98S
IMPERIAL       CLEAR     66  30  26 CALM      29.96S
BLYTHE         CLEAR     71  12  10 W8        30.00S
NEEDLES        CLEAR     70   4   7 CALM      30.05F
$$

NVZ020-UTZ003-170900-
SOUTHERN NEVADA-UTAH

CITY           SKY/WX    TMP DP  RH WIND       PRES   REMARKS
LAS VEGAS      PTCLDY    62  12  14 S6        30.14F
SALT LAKE CITY CLEAR     43  34  70 S3        30.32S
$$

NMZ009-TXZ055-170900-
NEW MEXICO-WEST TEXAS

CITY           SKY/WX    TMP DP  RH WIND       PRES   REMARKS
ALBUQUERQUE    CLOUDY    51  26  37 E6        30.36S
EL PASO        CLEAR     62  38  40 NE5       30.29S
$$


........................KEY........................
SKY/WX - SKY CONDITION/WEATHER
TMP    - TEMPERATURE IN FAHRENHEIT
DP     - DEW POINT IN FAHRENHEIT
RH     - RELATIVE HUMIDITY IN PERCENT
WIND   - DIRECTION AND SPEED IN MILES PER HOUR (MPH)
VRB    - VARIABLE WIND DIRECTION
PRES   - MEAN SEA LEVEL PRESSURE IN INCHES OF MERCURY
         F - FALLING PRESSURE   R - RISING PRESSURE
         S - STEADY PRESSURE
VSB    - VISIBILITY IN MILES
HX     - HEAT INDEX IN FAHRENHEIT
WCI    - WIND CHILL INDEX IN FAHRENHEIT
TC     - TEMPERATURE IN CELSIUS WHICH IS ALSO KNOWN AS
         TEMPERATURE IN CENTIGRADE
AFB    - AIR FORCE BASE
         LUKE AFB IS LUKE AIR FORCE BASE
         DAVIS-MONTHAN IS DAVIS-MONTHAN AIR FORCE BASE
NAS    - NAVAL AIR STATION
         EL CENTRO NAS IS EL CENTRO NAVAL AIR STATION
N/A    - NOT AVAILABLE




USA.gov is the U.S. government's official web portal to all federal, state and local government web resources and services.